Tampa, FL

10:40 PM EDT on September 25, 2016 (GMT -0400)
MacDill Air Force Base

Weather History for KMCF - April, 2013

Change the Weather History Date:

Friday, April 5, 2013

  Actual Average Record
Temperature  
Mean Temperature 68 °F -  
Max Temperature 73 °F 78 °F 88 °F (2015)
Min Temperature 62 °F 61 °F 55 °F (2004)
Cooling Degree Days 2    
Growing Degree Days 18 (Base 50)    
Moisture  
Dew Point 64 °F    
Average Humidity 88    
Maximum Humidity 100    
Minimum Humidity 61    
Precipitation  
Precipitation 0.01 in - - ()
Sea Level Pressure  
Sea Level Pressure 29.91 in    
Wind  
Wind Speed 9 mph (NNW)    
Max Wind Speed 16 mph    
Max Gust Speed 25 mph    
Visibility 10 miles    
Events Rain    
Averages and records for this station are not official NWS values.
T = Trace of Precipitation, MM = Missing Value Source: NWS Daily Summary

Daily Weather History Graph

Daily Weather History Graph

Search for Another Location

Airport or City:

Trip Planner

Search our weather history database for the weather conditions in past years. The results will help you decide how hot, cold, wet, or windy it might be!

Date:

Astronomy

Apr. 05, 2013 Rise Set
Actual Time 7:15 AM EDT 7:50 PM EDT
Civil Twilight 6:52 AM EDT 8:13 PM EDT
Nautical Twilight 6:24 AM EDT 8:41 PM EDT
Astronomical Twilight 5:56 AM EDT 9:09 PM EDT
Moon 3:58 AM EDT (4/5) 3:34 PM EDT (4/5)
Length of Visible Light 13h 21m
Length of Day
12h 34m
Waning Crescent, 24% of the Moon is Illuminated
Apr 5
Waning Crescent
Apr 10
New
Apr 18
First Quarter
Apr 25
Full
May 2
Last Quarter

Hourly Weather History & Observations

Time (EDT) Temp. Dew Point Humidity Pressure Visibility Wind Dir Wind Speed Gust Speed Precip Events Conditions
12:37 AM 68.0 °F 68.0 °F 100% 29.88 in 10.0 mi South 5.8 mph - N/A   Clear
12:58 AM 66.9 °F 66.9 °F 100% 29.93 in 10.0 mi NNW 4.6 mph - 0.01 in   Clear
1:58 AM 66.6 °F 66.2 °F 99% 29.91 in 10.0 mi Calm Calm - N/A   Clear
2:58 AM 66.0 °F 65.8 °F 99% 29.90 in 10.0 mi Calm Calm - N/A   Partly Cloudy
3:58 AM 64.9 °F 64.9 °F 100% 29.89 in 10.0 mi North 1.2 mph - N/A   Clear
4:58 AM 66.4 °F 66.4 °F 100% 29.86 in 10.0 mi NW 4.6 mph - N/A   Clear
5:58 AM 67.3 °F 66.9 °F 99% 29.84 in 10.0 mi West 9.2 mph - N/A   Clear
6:58 AM 67.6 °F 67.1 °F 98% 29.87 in 10.0 mi West 12.7 mph - N/A   Partly Cloudy
7:58 AM 67.6 °F 67.1 °F 98% 29.89 in 10.0 mi West 10.4 mph - N/A   Clear
8:52 AM 68.0 °F 68.0 °F 100% 29.91 in 10.0 mi NW 6.9 mph - N/A Rain Light Rain
8:58 AM 68.5 °F 68.0 °F 98% 29.92 in 10.0 mi NW 6.9 mph - 0.00 in Rain Light Rain
9:20 AM 68.0 °F 68.0 °F 100% 29.91 in 10.0 mi WNW 11.5 mph - N/A   Partly Cloudy
9:58 AM 69.4 °F 69.1 °F 99% 29.91 in 10.0 mi WNW 8.1 mph - 0.00 in   Partly Cloudy
10:22 AM 69.8 °F 69.8 °F 100% 29.90 in 10.0 mi NW 8.1 mph - N/A   Light Drizzle
10:30 AM 69.8 °F 69.8 °F 100% 29.91 in 10.0 mi North 12.7 mph 19.6 mph N/A   Light Drizzle
10:44 AM 68.0 °F 66.2 °F 94% 29.92 in 10.0 mi NNE 9.2 mph 21.9 mph N/A   Overcast
10:54 AM 68.0 °F 66.2 °F 94% 29.92 in 10.0 mi NNE 9.2 mph 18.4 mph N/A   Overcast
10:58 AM 67.1 °F 65.5 °F 95% 29.93 in 10.0 mi NNW 11.5 mph - 0.00 in   Overcast
11:23 AM 68.0 °F 64.4 °F 88% 29.93 in 10.0 mi NNW 13.8 mph 20.7 mph N/A   Overcast
11:38 AM 69.8 °F 64.4 °F 83% 29.93 in 10.0 mi NNW 13.8 mph 20.7 mph N/A   Mostly Cloudy
11:43 AM 69.8 °F 64.4 °F 83% 29.93 in 10.0 mi NNW 13.8 mph 20.7 mph N/A   Mostly Cloudy
11:48 AM 69.8 °F 62.6 °F 78% 29.92 in 10.0 mi NNW 13.8 mph 21.9 mph N/A   Mostly Cloudy
11:53 AM 69.8 °F 62.6 °F 78% 29.92 in 10.0 mi NNW 12.7 mph 21.9 mph N/A   Mostly Cloudy
11:58 AM 71.1 °F 63.5 °F 77% 29.93 in 10.0 mi North 13.8 mph 24.2 mph N/A   Mostly Cloudy
12:38 PM 71.6 °F 62.6 °F 73% 29.92 in 10.0 mi NNW 16.1 mph 25.3 mph N/A   Overcast
12:58 PM 71.6 °F 63.9 °F 76% 29.92 in 10.0 mi NNW 15.0 mph 21.9 mph N/A   Mostly Cloudy
1:58 PM 71.8 °F 62.1 °F 71% 29.91 in 10.0 mi NNW 16.1 mph 23.0 mph N/A   Mostly Cloudy
2:58 PM 73.0 °F 58.8 °F 61% 29.91 in 10.0 mi NNW 12.7 mph - N/A   Clear
3:58 PM 72.3 °F 59.2 °F 63% 29.90 in 10.0 mi NW 13.8 mph 19.6 mph N/A   Clear
4:58 PM 70.3 °F 59.9 °F 69% 29.88 in 10.0 mi NW 13.8 mph 19.6 mph N/A   Clear
5:58 PM 69.6 °F 61.5 °F 75% 29.89 in 10.0 mi NW 12.7 mph 18.4 mph N/A   Partly Cloudy
6:13 PM 68.0 °F 62.6 °F 83% 29.88 in 10.0 mi NNW 16.1 mph 20.7 mph N/A   Mostly Cloudy
6:18 PM 68.0 °F 62.6 °F 83% 29.88 in 10.0 mi NNW 12.7 mph 24.2 mph N/A   Scattered Clouds
6:58 PM 66.2 °F 59.7 °F 80% 29.90 in 10.0 mi NW 13.8 mph 18.4 mph N/A   Clear
7:23 PM 64.4 °F 59.0 °F 83% 29.90 in 10.0 mi NNW 12.7 mph 19.6 mph N/A   Mostly Cloudy
7:58 PM 63.0 °F 58.5 °F 85% 29.92 in 10.0 mi NNW 10.4 mph 20.7 mph N/A   Overcast
8:43 PM 62.6 °F 59.0 °F 88% 29.93 in 10.0 mi NNW 10.4 mph - N/A   Mostly Cloudy
8:58 PM 62.6 °F 58.8 °F 87% 29.95 in 10.0 mi North 15.0 mph 20.7 mph N/A   Mostly Cloudy
9:58 PM 62.8 °F 59.9 °F 90% 29.98 in 10.0 mi North 9.2 mph - N/A   Overcast
10:58 PM 63.3 °F 58.6 °F 85% 30.00 in 10.0 mi North 11.5 mph 18.4 mph N/A   Overcast
11:58 PM 62.4 °F 57.9 °F 85% 30.02 in 10.0 mi NE 10.4 mph 16.1 mph N/A   Overcast